EW4210 Weather Reports


Display with metric or nautical units.
time (UTC)temp
F
wind
direction
speed
MPH
gust
MPH
rain 1hr
in
rain 24hr
in
rain mn
in
humidity
%
barometer
mb
20260510014527 74 86 1.0 4.0 0.00 0.00 0.00 63 1010.0
20260510013015 74 123 1.0 4.0 0.00 0.00 0.00 61 1009.9
20260510011600 75 109 1.0 3.0 0.00 0.00 0.00 61 1009.9
20260510011501 75 109 0.0 3.0 0.00 0.00 0.00 61 1009.9
20260510010107 76 83 1.0 4.0 0.00 0.00 0.00 60 1009.6
20260510004532 76 112 0.0 3.0 0.00 0.00 0.00 59 1009.6
20260510003023 77 111 1.0 4.0 0.00 0.00 0.00 57 1009.5
20260510001505 78 117 1.0 8.0 0.00 0.00 0.00 55 1009.4
20260510000046 79 90 1.0 7.0 0.00 0.00 0.00 55 1009.2
20260509234533 79 89 2.0 7.0 0.00 0.00 0.00 54 1009.0
20260509233022 80 94 1.0 3.0 0.00 0.00 0.00 44 1009.1
20260509231504 80 71 0.0 4.0 0.00 0.00 0.00 44 1009.0
20260509230045 80 37 0.0 3.0 0.00 0.00 0.00 43 1008.9
20260509224532 81 105 0.0 5.0 0.00 0.00 0.00 41 1008.8
20260509223015 81 146 0.0 4.0 0.00 0.00 0.00 38 1008.8
20260509221553 81 99 0.0 3.0 0.00 0.00 0.00 39 1008.8
20260509220041 81 58 1.0 3.0 0.00 0.00 0.00 42 1008.7
20260509214519 82 136 1.0 6.0 0.00 0.00 0.00 39 1008.6
20260509213058 82 68 1.0 8.0 0.00 0.00 0.00 39 1008.6
20260509211544 82 76 0.0 2.0 0.00 0.00 0.00 42 1008.8
20260509210026 82 69 1.0 6.0 0.00 0.00 0.00 39 1008.9
20260509204506 82 220 1.0 7.0 0.00 0.00 0.00 37 1009.0
20260509203058 82 168 1.0 6.0 0.00 0.00 0.00 42 1009.2
20260509201520 82 94 1.0 6.0 0.00 0.00 0.00 43 1009.6
20260509200109 82 67 1.0 3.0 0.00 0.00 0.00 42 1009.6
20260509200002 82 333 1.0 3.0 0.00 0.00 0.00 43 1009.7
20260509194545 82 83 2.0 4.0 0.00 0.00 0.00 44 1009.7
20260509193021 81 348 0.0 3.0 0.00 0.00 0.00 40 1009.7
20260509191615 82 63 1.0 3.0 0.00 0.00 0.00 43 1009.8
20260509191502 82 89 2.0 4.0 0.00 0.00 0.00 43 1009.8
20260509190040 81 102 2.0 7.0 0.00 0.00 0.00 48 1009.9
20260509184526 80 9 2.0 4.0 0.00 0.00 0.00 50 1009.9
20260509183056 81 123 2.0 4.0 0.00 0.00 0.00 51 1010.0
20260509181539 80 95 1.0 4.0 0.00 0.00 0.00 53 1010.1
20260509180020 80 92 1.0 3.0 0.00 0.00 0.00 58 1010.2
20260509174506 79 299 1.0 3.0 0.00 0.00 0.00 55 1010.2
20260509173043 79 284 0.0 3.0 0.00 0.00 0.00 61 1010.4
20260509171528 78 124 2.0 4.0 0.00 0.00 0.00 61 1010.5
20260509170006 77 148 2.0 4.0 0.00 0.00 0.00 62 1010.4
20260509164554 76 336 2.0 3.0 0.00 0.00 0.00 63 1010.4
20260509163025 75 296 0.0 4.0 0.00 0.00 0.00 69 1010.4
20260509161506 74 305 1.0 4.0 0.00 0.00 0.00 71 1010.4
20260509160042 74 286 1.0 3.0 0.00 0.00 0.00 70 1010.4
20260509154524 72 326 1.0 3.0 0.00 0.00 0.00 72 1010.4
20260509153057 72 341 1.0 3.0 0.00 0.00 0.00 74 1010.5
20260509153011 72 341 1.0 3.0 0.00 0.00 0.00 75 1010.5
20260509151539 71 290 1.0 5.0 0.00 0.00 0.00 75 1010.5
20260509150022 71 288 1.0 3.0 0.00 0.00 0.00 73 1010.4
20260509144559 71 198 0.0 3.0 0.00 0.00 0.00 76 1010.6
20260509143039 70 288 1.0 2.0 0.00 0.00 0.00 76 1010.7
20260509141515 68 192 0.0 3.0 0.00 0.00 0.00 80 1010.7
20260509140047 67 138 0.0 2.0 0.00 0.00 0.00 83 1010.7
20260509134520 65 285 0.0 4.0 0.00 0.00 0.00 85 1010.7
20260509133008 63 281 1.0 3.0 0.00 0.00 0.00 88 1010.8
20260509131548 63 244 0.0 2.0 0.00 0.00 0.00 91 1010.7
20260509130037 61 238 0.0 1.0 0.00 0.00 0.00 94 1010.6
20260509124503 60 249 0.0 0.0 0.00 0.00 0.00 96 1010.5
20260509123039 60 249 0.0 0.0 0.00 0.00 0.00 96 1010.2
20260509121525 59 249 0.0 0.0 0.00 0.00 0.00 96 1010.0
20260509120059 58 249 0.0 0.0 0.00 0.00 0.00 96 1009.6
20260509114540 58 249 0.0 0.0 0.00 0.00 0.00 96 1009.4
20260509113017 57 249 0.0 0.0 0.00 0.00 0.00 96 1009.2
20260509111551 57 249 0.0 0.0 0.00 0.00 0.00 95 1009.0
20260509110030 57 249 0.0 0.0 0.00 0.00 0.00 94 1008.8
20260509104515 57 249 0.0 0.0 0.00 0.00 0.00 94 1008.6
20260509103101 58 249 0.0 0.0 0.00 0.00 0.00 94 1008.5
20260509101539 58 249 0.0 0.0 0.00 0.00 0.00 94 1008.6
20260509100023 58 249 0.0 0.0 0.00 0.00 0.00 94 1008.5
20260509094558 59 249 0.0 0.0 0.00 0.00 0.00 94 1008.6
20260509094507 59 249 0.0 0.0 0.00 0.00 0.00 94 1008.7
20260509093043 59 249 0.0 0.0 0.00 0.00 0.00 94 1008.6
20260509091528 59 249 0.0 0.0 0.00 0.00 0.00 94 1008.6
20260509090008 59 249 0.0 0.0 0.00 0.00 0.00 93 1008.8
20260509084550 59 249 0.0 0.0 0.00 0.00 0.00 93 1008.8
20260509083035 59 249 0.0 0.0 0.00 0.00 0.00 92 1008.9
20260509081512 59 249 0.0 0.0 0.00 0.00 0.00 93 1009.0
20260509080048 59 249 0.0 0.0 0.00 0.00 0.00 92 1009.0
20260509074532 59 249 0.0 0.0 0.00 0.00 0.00 92 1009.1
20260509073014 59 249 0.0 0.0 0.00 0.00 0.00 91 1009.1
20260509071553 59 249 0.0 0.0 0.00 0.00 0.00 90 1009.1
20260509070030 60 249 0.0 0.0 0.00 0.00 0.00 89 1008.8
20260509064510 60 249 0.0 0.0 0.00 0.00 0.00 89 1008.7
20260509063048 61 249 0.0 0.0 0.00 0.00 0.00 87 1008.7
20260509061528 62 249 0.0 0.0 0.00 0.00 0.00 85 1008.8
20260509060014 63 249 0.0 1.0 0.00 0.00 0.00 83 1008.5
20260509054602 63 249 1.0 2.0 0.00 0.00 0.00 82 1008.7
20260509053042 63 210 0.0 2.0 0.00 0.00 0.00 83 1008.2
20260509051522 63 210 1.0 3.0 0.00 0.00 0.00 84 1008.4
20260509050137 63 166 2.0 5.0 0.00 0.00 0.00 84 1008.1
20260509044552 63 188 1.0 2.0 0.00 0.00 0.00 83 1009.5
20260509043015 64 267 0.0 2.0 0.00 0.00 0.00 79 1011.1
20260509041554 65 254 0.0 0.0 0.00 0.00 0.00 74 1011.8
20260509040037 65 158 0.0 0.0 0.00 0.00 0.00 72 1010.6
20260509034512 64 158 0.0 2.0 0.00 0.00 0.00 72 1010.9
20260509033052 63 158 0.0 1.0 0.00 0.00 0.00 75 1010.9
20260509031529 63 79 0.0 0.0 0.00 0.00 0.00 74 1010.7
20260509030031 64 79 0.0 0.0 0.00 0.00 0.00 72 1010.7
20260509024600 64 79 0.0 0.0 0.00 0.00 0.00 70 1010.5
20260509023059 65 79 0.0 0.0 0.00 0.00 0.00 69 1010.2
20260509021538 66 79 0.0 1.0 0.00 0.00 0.00 67 1009.5
20260509020026 66 79 0.0 2.0 0.00 0.00 0.00 64 1008.9